Wind_Speed
43 41 41 36 35 33 29 29 26 23 24 21 21 18 17 16 14 14 12 11 11 11 11 11 11 8 3 1 3 2 4 5 6 8 9 8 11 3 1 3 5 6 3 8 11 21 21
45 47 43 42 42 38 32 31 32 29 26 23 22 20 18 17 15 15 13 11 11 11 11 11 10 7 2 3 7 8 4 3 6 8 9 9 6 4 1 3 2 3 12 18 15 18 17
40 36 47 45 44 43 40 34 35 34 31 26 23 23 20 16 14 14 12 11 12 12 11 10 9 5 1 6 9 6 4 4 6 7 7 6 4 4 4 4 5 8 11 10 9 2 3
38 43 42 47 49 48 47 43 37 39 35 30 25 25 20 16 14 13 11 11 12 11 11 10 5 2 4 10 8 4 4 3 6 5 5 3 4 6 2 5 6 5 3 5 1 14 4
39 41 42 47 52 52 49 46 48 42 39 34 28 26 21 16 15 13 10 9 10 9 8 7 3 2 7 8 5 2 1 4 8 4 5 2 2 1 1 1 3 4 8 9 9 7 6
36 42 44 43 48 58 55 52 53 45 46 41 32 29 21 16 16 12 9 6 5 5 5 4 3 5 8 6 3 4 4 8 5 4 3 3 3 1 1 1 4 6 9 8 14 2 8
40 41 46 49 47 52 59 57 55 53 50 43 34 29 22 17 15 12 9 7 4 2 8 2 4 4 7 4 5 5 3 8 2 2 2 2 1 6 7 7 7 7 13 17 23 18 17
45 46 45 49 53 54 58 59 60 50 53 46 38 28 24 18 15 14 12 8 7 3 1 7 6 5 4 2 2 6 3 2 1 2 0 1 5 5 4 6 6 7 13 18 24 13 14
53 53 50 54 59 61 54 60 61 54 56 47 37 30 27 21 19 15 14 14 7 6 2 1 4 4 4 3 1 2 2 1 1 1 3 4 2 3 2 8 7 9 11 17 16 26 21
57 58 57 54 56 57 58 62 64 59 58 47 34 30 25 25 19 17 14 13 9 9 3 3 4 5 6 3 1 2 2 1 1 1 1 6 1 2 2 8 5 10 12 16 13 14 10
62 64 56 48 48 49 66 66 64 64 55 47 38 33 27 28 13 23 13 12 11 6 3 6 3 8 6 2 3 1 3 1 3 2 1 3 1 2 4 8 6 8 6 14 18 16 13
60 54 42 37 43 48 71 72 63 63 52 45 40 36 30 29 18 19 14 14 11 3 6 5 5 4 4 2 1 1 4 3 1 0 3 9 5 4 5 6 10 11 10 18 6 2 5
50 26 26 32 38 63 69 68 68 55 51 44 35 35 30 28 26 25 19 17 3 4 2 6 4 3 4 2 2 3 3 5 4 5 6 6 3 3 5 4 3 1 11 5 2 3 6
29 19 24 32 61 75 76 73 50 56 48 39 38 32 30 25 27 26 25 3 4 4 4 4 5 7 4 1 2 3 3 2 4 1 2 5 2 1 1 4 7 8 4 3 5 5 13
40 35 20 61 69 69 66 55 57 48 41 41 36 32 28 26 26 24 12 2 4 5 7 10 5 4 3 2 3 0 2 2 2 2 4 2 5 1 8 7 2 1 3 3 4 9 5
11 26 41 35 56 64 58 49 45 42 41 40 39 31 26 25 23 23 3 3 3 4 7 5 4 3 4 4 2 3 1 1 2 2 1 0 5 2 5 5 5 2 5 2 3 5 7
3 11 14 23 41 43 45 45 44 43 41 36 34 13 21 22 19 14 3 3 4 9 9 4 5 5 4 4 3 2 3 1 0 1 1 0 2 6 5 1 7 5 4 4 3 4 4
12 15 21 24 24 21 27 35 45 42 43 37 10 5 23 23 5 2 3 4 6 6 5 5 5 5 4 4 3 3 4 3 1 1 4 1 2 5 7 11 2 5 8 4 4 3 5
15 20 19 22 25 29 30 29 30 43 38 19 9 12 23 15 4 3 2 3 4 5 4 4 4 3 3 4 4 3 3 4 3 2 3 2 2 5 3 5 4 6 14 10 8 4 4
13 15 18 21 22 22 24 26 32 38 22 18 10 4 5 5 1 4 4 4 5 6 5 8 5 5 4 3 1 4 2 1 3 2 6 3 3 5 4 5 3 4 16 14 9 2 4
15 14 13 17 19 19 20 24 32 36 19 9 5 4 9 4 4 3 3 5 10 5 4 7 3 4 5 4 2 3 2 2 1 0 2 1 3 4 9 13 2 4 12 15 11 11 5
13 14 15 14 18 19 19 22 31 28 16 2 5 7 6 7 16 5 3 4 7 4 4 3 7 6 4 4 3 4 4 3 3 1 2 1 2 2 4 5 9 3 13 12 10 11 6
20 17 14 13 13 17 18 20 23 23 14 2 8 14 12 2 4 4 3 5 8 8 8 8 10 5 5 4 5 6 7 8 5 2 1 2 0 3 2 5 3 4 8 7 8 14 8
15 13 12 13 14 16 16 17 20 18 9 8 14 8 7 2 3 4 6 10 8 4 6 5 9 4 4 3 4 1 3 8 7 10 10 2 2 1 4 6 2 4 6 3 7 10 10
15 15 14 12 14 17 17 16 17 15 9 10 12 7 6 3 6 7 12 8 13 12 5 6 4 3 1 2 3 4 2 2 3 2 5 8 1 1 2 3 4 4 6 6 4 7 13
21 17 17 13 14 17 16 15 16 14 11 9 10 10 10 10 1 10 8 9 4 3 2 3 5 4 2 2 2 3 3 3 4 3 5 5 2 0 2 2 1 2 13 10 5 2 12
25 20 16 13 13 16 17 17 16 15 12 10 11 13 11 11 6 10 4 5 6 5 3 2 2 2 4 2 2 2 2 1 3 2 0 1 2 2 1 2 4 7 16 9 3 4 10
23 23 19 15 14 15 18 18 17 14 12 10 12 10 8 9 10 10 9 9 8 5 3 5 4 3 3 3 2 2 1 2 2 3 2 1 0 0 1 1 2 12 3 3 4 7 9
25 25 23 17 15 16 18 16 15 14 12 11 13 13 15 10 13 16 15 11 8 7 12 4 4 3 3 3 1 2 2 1 3 4 1 2 1 1 0 1 6 7 7 3 4 4 7
Wind_Direction
268 268 270 263 261 261 261 263 262 263 271 271 272 273 275 278 277 276 272 273 279 287 293 307 318 333 351 145 138 111 72 36 22 1 12 30 48 49 28 279 308 224 265 294 285 292 287
262 264 263 265 266 259 258 266 261 259 259 264 265 266 266 271 273 272 272 273 275 282 293 302 313 329 320 142 131 115 79 19 349 358 23 34 47 16 296 275 264 333 294 289 289 270 273
252 253 261 259 259 262 258 259 264 259 255 254 256 256 258 260 264 261 266 272 275 283 289 296 310 340 98 147 125 109 86 48 27 12 19 21 9 1 319 290 321 294 301 319 281 342 256
255 249 251 257 255 256 256 258 261 256 253 248 249 249 252 261 254 250 257 267 277 283 285 290 305 347 121 134 125 99 96 56 6 339 339 351 337 316 237 314 336 320 304 340 185 331 275
257 256 253 252 254 254 253 254 256 258 251 246 243 243 241 241 238 244 247 262 274 277 266 257 250 144 141 143 127 80 55 339 339 15 337 304 332 46 5 339 325 21 302 294 300 201 319
277 265 256 253 249 252 251 249 251 256 248 242 233 237 233 224 223 227 239 246 257 253 224 227 209 132 158 151 101 90 41 347 339 360 78 36 84 114 118 174 293 311 300 276 282 234 300
283 276 266 252 248 241 245 247 248 250 242 234 227 224 219 209 213 213 211 178 187 203 203 204 142 113 133 130 119 85 73 347 347 75 20 21 272 235 242 218 272 281 274 282 280 288 296
290 284 277 256 246 244 236 240 238 240 236 228 225 218 196 191 208 202 199 196 196 176 201 220 215 201 180 65 101 49 62 28 355 351 189 320 254 254 261 265 255 270 283 280 288 294 310
295 293 286 261 247 244 236 226 227 239 232 221 215 205 188 189 199 198 197 211 208 188 119 192 184 173 162 155 99 31 33 63 99 174 199 227 296 35 243 272 262 263 260 282 274 312 308
296 293 286 266 246 235 224 218 222 229 222 215 207 191 187 183 187 188 193 194 195 180 95 187 205 173 140 143 100 59 12 86 123 261 296 250 299 33 357 276 269 281 257 270 286 313 305
297 294 278 251 236 231 213 212 210 219 212 210 203 183 180 181 183 179 186 184 178 174 208 150 145 146 141 161 149 87 35 141 172 208 91 271 208 266 270 253 179 245 230 283 282 285 300
299 290 258 234 232 212 202 200 208 209 207 203 191 189 180 178 172 174 178 173 157 64 213 151 132 170 122 63 38 34 59 78 115 43 242 263 280 272 225 280 233 278 314 296 286 256 259
319 272 235 230 214 199 192 195 200 210 200 196 187 186 183 179 180 173 167 156 91 208 169 153 142 127 105 55 84 23 62 51 35 354 353 317 239 206 202 271 255 115 328 309 284 216 261
340 251 225 209 184 176 179 189 207 195 193 184 176 175 174 174 169 165 158 90 182 143 140 131 117 112 106 110 60 352 122 112 64 95 304 338 358 96 98 314 285 292 247 288 302 305 300
35 77 186 181 172 171 176 190 183 182 175 166 158 163 172 175 170 167 159 171 199 177 148 137 109 104 135 130 143 175 81 154 111 32 14 309 270 252 313 315 288 70 221 295 266 263 283
27 43 94 105 140 158 162 166 169 165 156 155 159 153 161 165 166 166 108 174 163 140 122 118 117 137 145 153 156 62 96 209 135 175 327 271 289 259 293 274 150 264 320 308 215 302 299
42 129 123 106 107 126 138 146 156 155 145 152 140 117 160 158 158 170 168 185 142 145 122 114 130 127 127 137 143 159 172 203 189 315 80 174 200 299 292 67 355 342 315 293 271 243 284
86 123 138 142 151 152 139 135 141 145 149 140 113 100 154 152 139 170 148 187 117 139 117 96 95 95 120 138 143 159 181 169 165 77 330 152 280 282 296 298 111 349 333 289 255 287 266
108 109 113 120 125 127 132 138 146 148 136 119 98 94 161 173 144 164 199 137 111 160 128 115 113 117 123 144 128 177 184 154 169 349 213 166 207 312 19 118 30 18 353 336 284 243 285
124 125 126 124 129 132 141 151 153 148 138 129 122 118 130 195 188 144 153 134 120 104 71 84 110 98 110 114 88 159 150 333 296 241 215 220 231 205 230 250 5 323 11 5 355 282 340
134 115 116 137 146 142 145 152 158 159 154 132 138 147 162 173 224 177 115 140 135 122 93 115 67 123 136 126 133 140 130 312 316 17 193 224 255 229 251 263 181 24 29 14 8 350 52
157 136 121 130 141 146 156 157 164 174 166 156 132 130 132 113 141 130 138 166 132 110 123 117 132 152 143 148 161 156 145 186 220 159 292 251 238 314 322 109 170 101 30 30 21 360 62
167 149 144 159 166 159 161 161 170 178 170 125 118 131 123 104 135 128 178 154 147 117 43 122 140 127 161 202 180 217 225 243 237 265 266 226 112 356 299 354 342 64 15 37 55 35 360
163 152 159 168 174 163 160 163 168 174 167 135 143 127 106 117 117 125 132 123 133 104 128 113 126 122 146 287 286 10 250 247 248 253 225 213 153 247 299 322 94 118 58 37 66 48 29
163 167 169 168 175 170 163 164 165 166 165 151 141 112 108 97 112 97 117 114 94 93 86 115 97 118 69 87 92 113 127 150 145 101 207 215 137 299 315 323 122 146 32 338 357 56 17
173 167 165 161 166 165 163 158 157 157 167 160 140 122 115 122 72 128 106 122 118 108 83 97 96 115 103 84 85 147 175 139 154 129 69 132 358 50 15 290 211 19 333 326 246 143 10
169 168 169 167 161 163 162 160 155 158 157 162 139 131 125 102 121 130 109 131 124 106 101 126 87 82 55 85 105 138 152 141 166 147 26 66 81 65 351 277 107 347 324 322 252 19 17
176 170 167 166 164 166 167 162 159 158 158 153 131 140 123 105 120 118 120 129 128 137 143 159 114 33 64 84 127 163 133 95 127 141 165 130 94 111 234 275 201 354 353 50 356 11 18
178 169 163 162 164 156 163 160 160 158 152 150 135 119 123 118 124 113 115 120 130 131 128 123 111 106 138 105 126 134 131 142 165 175 8 164 28 117 297 71 98 72 90 45 23 16 21
Height
1482 1484 1486 1488 1490 1492 1494 1497 1498 1500 1502 1502 1504 1504 1505 1506 1507 1509 1507 1507 1508 1507 1504 1505 1505 1505 1504 1505 1506 1506 1506 1507 1506 1506 1505 1504 1504 1506 1506 1506 1505 1502 1502 1503 1502 1501 1498
1479 1475 1478 1481 1483 1486 1488 1490 1493 1495 1497 1499 1499 1500 1502 1503 1504 1507 1506 1505 1506 1506 1504 1504 1503 1503 1503 1504 1505 1505 1506 1507 1507 1505 1505 1506 1506 1506 1507 1505 1505 1502 1501 1498 1497 1494 1493
1466 1470 1469 1471 1474 1478 1481 1483 1486 1489 1491 1493 1495 1495 1498 1499 1502 1503 1504 1504 1505 1505 1503 1503 1503 1503 1503 1504 1504 1505 1506 1506 1506 1506 1505 1505 1506 1507 1508 1505 1504 1502 1497 1495 1489 1491 1490
1457 1459 1462 1463 1464 1467 1471 1477 1478 1481 1484 1486 1489 1491 1494 1497 1498 1500 1502 1502 1504 1503 1502 1501 1501 1502 1503 1504 1504 1506 1506 1506 1506 1504 1504 1504 1504 1506 1507 1507 1504 1500 1499 1493 1490 1487 1487
1448 1449 1451 1454 1455 1457 1461 1465 1470 1473 1477 1479 1483 1486 1488 1493 1495 1497 1499 1499 1501 1501 1501 1500 1500 1501 1503 1504 1504 1504 1505 1506 1506 1505 1502 1500 1501 1506 1508 1506 1502 1504 1492 1496 1490 1487 1488
1437 1438 1439 1442 1444 1445 1449 1456 1460 1464 1468 1472 1476 1479 1485 1488 1490 1493 1496 1498 1498 1499 1500 1500 1499 1503 1504 1503 1502 1502 1504 1505 1504 1504 1503 1502 1502 1504 1507 1504 1495 1499 1498 1491 1490 1486 1487
1424 1425 1426 1427 1430 1434 1438 1444 1449 1454 1459 1463 1469 1472 1479 1485 1487 1489 1494 1497 1501 1500 1500 1498 1498 1498 1500 1502 1500 1500 1501 1503 1504 1504 1504 1504 1503 1499 1498 1502 1502 1505 1501 1494 1480 1478 1485
1409 1409 1409 1411 1414 1420 1427 1432 1438 1442 1451 1454 1460 1467 1472 1478 1485 1487 1490 1491 1493 1496 1497 1496 1496 1497 1498 1500 1502 1502 1501 1501 1503 1505 1505 1503 1499 1498 1499 1500 1504 1504 1500 1490 1472 1472 1480
1393 1391 1390 1391 1395 1401 1410 1419 1424 1432 1441 1447 1454 1463 1469 1471 1480 1484 1486 1489 1491 1492 1495 1497 1495 1496 1498 1501 1502 1502 1501 1500 1501 1504 1503 1501 1496 1497 1498 1496 1500 1499 1496 1486 1486 1469 1467
1377 1372 1369 1368 1373 1381 1394 1405 1412 1421 1431 1439 1448 1457 1467 1468 1481 1479 1484 1485 1489 1490 1496 1498 1496 1496 1497 1499 1502 1502 1501 1501 1501 1501 1501 1501 1498 1498 1499 1497 1496 1497 1486 1485 1484 1483 1468
1358 1351 1343 1345 1353 1365 1381 1391 1398 1413 1423 1432 1441 1450 1462 1464 1469 1475 1480 1485 1487 1490 1489 1495 1497 1497 1495 1499 1500 1502 1500 1498 1498 1499 1504 1494 1495 1497 1499 1493 1493 1488 1486 1482 1478 1479 1479
1337 1323 1319 1328 1339 1351 1364 1376 1389 1405 1416 1426 1435 1446 1456 1462 1465 1472 1478 1484 1489 1493 1482 1488 1492 1495 1496 1497 1499 1499 1498 1496 1497 1499 1499 1495 1493 1494 1492 1488 1489 1482 1482 1475 1475 1482 1482
1320 1308 1311 1318 1326 1341 1353 1371 1386 1400 1407 1421 1430 1443 1454 1456 1460 1466 1477 1483 1490 1482 1480 1486 1491 1494 1495 1499 1500 1501 1499 1500 1501 1499 1498 1494 1489 1489 1489 1489 1484 1484 1483 1469 1465 1468 1443
1313 1307 1309 1314 1320 1328 1344 1362 1381 1393 1405 1415 1425 1443 1448 1458 1462 1465 1471 1481 1478 1476 1477 1479 1487 1492 1495 1499 1502 1502 1499 1500 1503 1504 1506 1502 1484 1485 1487 1486 1483 1482 1489 1478 1473 1454 1439
1331 1305 1307 1310 1320 1333 1348 1365 1379 1389 1402 1414 1426 1439 1450 1458 1461 1465 1467 1475 1464 1467 1470 1476 1486 1491 1497 1499 1502 1501 1502 1502 1503 1504 1506 1503 1495 1486 1486 1485 1484 1484 1483 1477 1478 1462 1460
1348 1346 1332 1335 1330 1338 1352 1366 1378 1391 1403 1413 1425 1437 1450 1457 1461 1464 1468 1463 1468 1465 1468 1471 1480 1488 1495 1497 1500 1503 1501 1502 1503 1503 1503 1501 1502 1486 1486 1483 1481 1481 1480 1475 1475 1467 1448
1357 1355 1359 1360 1350 1357 1364 1371 1380 1392 1403 1418 1431 1438 1452 1456 1460 1465 1465 1462 1464 1464 1467 1469 1478 1486 1490 1494 1497 1504 1502 1502 1501 1502 1501 1501 1501 1488 1484 1482 1481 1477 1476 1478 1477 1468 1452
1365 1364 1365 1366 1367 1372 1375 1380 1383 1397 1408 1421 1427 1437 1450 1455 1462 1461 1460 1460 1459 1465 1468 1468 1476 1482 1486 1491 1495 1497 1498 1498 1499 1499 1499 1500 1499 1494 1482 1480 1478 1478 1478 1478 1472 1456 1452
1374 1372 1373 1375 1376 1377 1383 1390 1397 1401 1412 1416 1429 1439 1451 1453 1455 1458 1458 1458 1460 1464 1464 1470 1476 1479 1483 1489 1494 1496 1498 1497 1497 1499 1498 1499 1498 1498 1480 1479 1477 1483 1482 1483 1473 1466 1456
1379 1379 1380 1382 1385 1389 1394 1399 1403 1408 1414 1420 1426 1442 1451 1452 1453 1453 1456 1457 1462 1463 1466 1469 1476 1478 1483 1488 1492 1496 1496 1496 1497 1497 1497 1497 1495 1495 1493 1489 1494 1490 1485 1481 1474 1458 1458
1384 1383 1385 1388 1392 1396 1399 1404 1408 1411 1416 1419 1423 1434 1438 1450 1451 1450 1451 1455 1458 1463 1466 1469 1476 1477 1481 1488 1493 1495 1496 1497 1497 1497 1496 1496 1494 1492 1486 1483 1491 1494 1488 1488 1481 1472 1465
1386 1388 1391 1394 1397 1400 1404 1407 1411 1414 1417 1420 1420 1426 1434 1439 1444 1449 1451 1455 1455 1461 1465 1470 1473 1479 1481 1484 1486 1490 1493 1496 1495 1496 1495 1496 1491 1490 1480 1478 1484 1491 1492 1489 1489 1485 1479
1388 1390 1393 1397 1400 1403 1406 1409 1413 1416 1419 1419 1420 1423 1427 1442 1445 1447 1451 1452 1456 1459 1468 1468 1472 1477 1482 1483 1484 1486 1488 1492 1494 1495 1495 1495 1491 1487 1480 1479 1481 1488 1498 1496 1497 1495 1491
1389 1393 1396 1399 1401 1404 1407 1411 1414 1417 1419 1419 1421 1424 1427 1443 1442 1443 1447 1450 1457 1460 1466 1470 1472 1475 1481 1480 1481 1481 1486 1490 1492 1492 1494 1492 1490 1490 1482 1479 1481 1495 1500 1499 1499 1499 1499
1391 1394 1397 1399 1402 1406 1408 1412 1415 1418 1421 1422 1423 1424 1427 1440 1442 1446 1450 1455 1459 1463 1468 1470 1473 1476 1476 1477 1478 1481 1485 1488 1489 1489 1490 1493 1489 1486 1485 1482 1490 1492 1501 1503 1499 1501 1503
1391 1395 1398 1401 1403 1406 1410 1412 1416 1418 1422 1423 1424 1426 1429 1435 1447 1447 1452 1456 1461 1466 1470 1472 1474 1474 1475 1477 1480 1480 1481 1481 1484 1488 1491 1492 1492 1489 1488 1486 1485 1498 1501 1500 1501 1497 1506
1390 1395 1398 1401 1404 1407 1411 1415 1419 1420 1423 1425 1426 1428 1431 1437 1446 1449 1452 1457 1461 1465 1470 1473 1473 1474 1474 1478 1481 1482 1483 1484 1483 1487 1492 1490 1489 1493 1494 1488 1496 1505 1499 1496 1490 1508 1508
1390 1394 1398 1402 1405 1409 1413 1416 1418 1421 1424 1426 1428 1430 1433 1437 1447 1450 1453 1456 1461 1463 1468 1472 1474 1475 1477 1480 1482 1486 1484 1486 1486 1490 1490 1491 1489 1493 1493 1494 1495 1506 1499 1499 1511 1508 1509
1390 1394 1399 1404 1408 1411 1414 1416 1419 1421 1425 1426 1430 1432 1434 1439 1448 1452 1455 1459 1461 1464 1465 1470 1472 1473 1476 1481 1487 1487 1486 1489 1487 1487 1491 1493 1493 1494 1497 1499 1506 1508 1508 1510 1509 1509 1509